When you browse on this site, cookies collect data to enhance your experience and personalize the content and advertising you see.
Visit our Privacy Policy to learn more. By continuing to use the site, you agree to this use of cookies and data.
  • în România
  • Lista ţărilor
  • Pe 7 zile
  • Temperatura apei
  • Hartă satelitară
  • Meteo pe hartă
  • Widget-uri
  • user-avatar
    Intrare

    Meteo pe oră la Bremen

    Astăzi, 24 Martie, Duminică

    Timp Temperatura Precipitaţii Vânt Presiune Umiditate
    00:00 +5°C° 0 mm 1 m/s 772 mmHg 90%
    01:00 +4°C° 0 mm 1 m/s 772 mmHg 89%
    02:00 +4°C° 0 mm 1 m/s 772 mmHg 89%
    03:00 +5°C° 0 mm 1 m/s 772 mmHg 88%
    04:00 +5°C° 0 mm 1 m/s 772 mmHg 87%
    05:00 +5°C° 0 mm 1 m/s 772 mmHg 87%
    06:00 +3°C° 0 mm 0 m/s 772 mmHg 87%
    07:00 +3°C° 0 mm 0 m/s 771 mmHg 87%
    08:00 +5°C° 0 mm 0 m/s 771 mmHg 80%
    09:00 +6°C° 0 mm 0 m/s 771 mmHg 74%
    10:00 +7°C° 0 mm 0 m/s 771 mmHg 67%
    11:00 +9°C° 0 mm 1 m/s 770 mmHg 62%
    12:00 +9°C° 0 mm 2 m/s 770 mmHg 57%
    13:00 +10°C° 0 mm 3 m/s 770 mmHg 52%
    14:00 +10°C° 0 mm 3 m/s 769 mmHg 52%
    15:00 +10°C° 0 mm 3 m/s 768 mmHg 53%
    16:00 +10°C° 0 mm 4 m/s 768 mmHg 53%
    17:00 +9°C° 0 mm 3 m/s 768 mmHg 59%
    18:00 +7°C° 0 mm 3 m/s 767 mmHg 65%
    19:00 +5°C° 0 mm 2 m/s 767 mmHg 71%
    20:00 +4°C° 0 mm 3 m/s 767 mmHg 74%
    21:00 +3°C° 0 mm 3 m/s 766 mmHg 77%
    22:00 +3°C° 0 mm 4 m/s 766 mmHg 79%
    23:00 +2°C° 0 mm 5 m/s 765 mmHg 80%

    Mâine, 25 Martie, Luni

    Timp Temperatura Precipitaţii Vânt Presiune Umiditate
    00:00 +2°C° 0 mm 5 m/s 764 mmHg 80%
    01:00 +2°C° 0 mm 6 m/s 764 mmHg 81%
    02:00 +2°C° 0.6 mm 6 m/s 763 mmHg 81%
    03:00 +3°C° 0.6 mm 6 m/s 762 mmHg 81%
    04:00 +3°C° 0.6 mm 6 m/s 762 mmHg 81%
    05:00 +2°C° 0.1 mm 6 m/s 762 mmHg 82%
    06:00 +2°C° 0.1 mm 5 m/s 762 mmHg 82%
    07:00 +1°C° 0.1 mm 5 m/s 761 mmHg 83%
    08:00 +2°C° 0.3 mm 6 m/s 762 mmHg 77%
    09:00 +3°C° 0.3 mm 7 m/s 762 mmHg 71%
    10:00 +5°C° 0.3 mm 8 m/s 762 mmHg 65%
    11:00 +5°C° 0.2 mm 8 m/s 763 mmHg 64%
    12:00 +6°C° 0.2 mm 9 m/s 763 mmHg 62%
    13:00 +6°C° 0.2 mm 9 m/s 763 mmHg 60%
    14:00 +6°C° 0 mm 9 m/s 764 mmHg 61%
    15:00 +6°C° 0 mm 9 m/s 765 mmHg 62%
    16:00 +6°C° 0 mm 8 m/s 765 mmHg 63%
    17:00 +5°C° 0 mm 7 m/s 766 mmHg 68%
    18:00 +4°C° 0 mm 6 m/s 767 mmHg 74%
    19:00 +3°C° 0 mm 5 m/s 768 mmHg 79%
    20:00 +3°C° 0 mm 4 m/s 769 mmHg 82%
    21:00 +3°C° 0 mm 4 m/s 770 mmHg 85%
    22:00 +2°C° 0 mm 3 m/s 771 mmHg 89%
    23:00 +2°C° 0 mm 3 m/s 771 mmHg 89%

    Poimâine, 26 Martie, Marţi

    Timp Temperatura Precipitaţii Vânt Presiune Umiditate
    00:00 +1°C° 0 mm 3 m/s 772 mmHg 88%
    01:00 +1°C° 0 mm 3 m/s 772 mmHg 88%
    02:00 0°C° 0 mm 3 m/s 772 mmHg 90%
    03:00 0°C° 0 mm 3 m/s 772 mmHg 92%
    04:00 0°C° 0 mm 3 m/s 772 mmHg 94%
    05:00 0°C° 0 mm 3 m/s 772 mmHg 94%
    06:00 0°C° 0 mm 3 m/s 773 mmHg 94%
    07:00 +1°C° 0 mm 3 m/s 773 mmHg 94%
    08:00 +2°C° 0 mm 3 m/s 773 mmHg 86%
    09:00 +4°C° 0 mm 4 m/s 773 mmHg 78%
    10:00 +6°C° 0 mm 5 m/s 773 mmHg 69%
    11:00 +7°C° 0 mm 5 m/s 773 mmHg 69%
    12:00 +7°C° 0 mm 5 m/s 773 mmHg 68%
    13:00 +7°C° 0 mm 5 m/s 773 mmHg 67%
    14:00 +7°C° 0.1 mm 5 m/s 773 mmHg 68%
    15:00 +8°C° 0.1 mm 5 m/s 772 mmHg 69%
    16:00 +8°C° 0.1 mm 5 m/s 772 mmHg 70%
    17:00 +7°C° 0 mm 4 m/s 772 mmHg 75%
    18:00 +7°C° 0 mm 3 m/s 772 mmHg 80%
    19:00 +5°C° 0 mm 2 m/s 772 mmHg 84%
    20:00 +4°C° 0 mm 3 m/s 772 mmHg 87%
    21:00 +3°C° 0 mm 3 m/s 773 mmHg 91%
    22:00 +3°C° 0 mm 3 m/s 773 mmHg 94%
    23:00 +2°C° 0 mm 3 m/s 773 mmHg 95%

    27 Martie, Miercuri

    Timp Temperatura Precipitaţii Vânt Presiune Umiditate
    00:00 +2°C° 0 mm 3 m/s 772 mmHg 96%
    01:00 +2°C° 0 mm 3 m/s 772 mmHg 97%
    02:00 +2°C° 0 mm 3 m/s 772 mmHg 97%
    03:00 +2°C° 0 mm 3 m/s 772 mmHg 97%
    04:00 +3°C° 0 mm 3 m/s 772 mmHg 97%
    05:00 +3°C° 0.1 mm 3 m/s 772 mmHg 96%
    06:00 +3°C° 0.1 mm 3 m/s 772 mmHg 95%
    07:00 +3°C° 0.1 mm 3 m/s 772 mmHg 95%
    08:00 +4°C° 0.2 mm 3 m/s 772 mmHg 93%
    09:00 +5°C° 0.2 mm 3 m/s 772 mmHg 91%
    10:00 +6°C° 0.2 mm 4 m/s 772 mmHg 89%
    11:00 +7°C° 0.2 mm 4 m/s 772 mmHg 88%
    12:00 +8°C° 0.2 mm 4 m/s 772 mmHg 86%
    13:00 +8°C° 0.2 mm 4 m/s 772 mmHg 84%
    14:00 +8°C° 0.2 mm 4 m/s 772 mmHg 86%
    15:00 +8°C° 0.2 mm 4 m/s 772 mmHg 89%
    16:00 +8°C° 0.2 mm 4 m/s 772 mmHg 91%
    17:00 +7°C° 0 mm 4 m/s 772 mmHg 92%
    18:00 +8°C° 0 mm 3 m/s 772 mmHg 93%
    19:00 +8°C° 0 mm 3 m/s 772 mmHg 95%
    20:00 +7°C° 0 mm 3 m/s 772 mmHg 95%
    21:00 +7°C° 0 mm 3 m/s 772 mmHg 96%
    22:00 +7°C° 0 mm 3 m/s 773 mmHg 96%
    23:00 +7°C° 0 mm 3 m/s 773 mmHg 96%

    28 Martie, Joi

    Timp Temperatura Precipitaţii Vânt Presiune Umiditate
    00:00 +7°C° 0 mm 3 m/s 773 mmHg 97%
    01:00 +7°C° 0 mm 2 m/s 773 mmHg 97%
    02:00 +7°C° 0 mm 2 m/s 773 mmHg 97%
    03:00 +7°C° 0 mm 2 m/s 773 mmHg 97%
    04:00 +7°C° 0 mm 2 m/s 773 mmHg 97%
    05:00 +7°C° 0 mm 2 m/s 773 mmHg 97%
    06:00 +7°C° 0 mm 2 m/s 773 mmHg 97%
    07:00 +7°C° 0 mm 2 m/s 774 mmHg 97%
    08:00 +8°C° 0 mm 2 m/s 774 mmHg 94%
    09:00 +8°C° 0 mm 2 m/s 774 mmHg 92%
    10:00 +9°C° 0 mm 3 m/s 774 mmHg 90%
    11:00 +9°C° 0 mm 3 m/s 774 mmHg 87%
    12:00 +10°C° 0 mm 3 m/s 774 mmHg 84%
    13:00 +11°C° 0 mm 3 m/s 774 mmHg 81%
    14:00 +11°C° 0 mm 3 m/s 774 mmHg 78%
    15:00 +11°C° 0 mm 3 m/s 773 mmHg 75%
    16:00 +12°C° 0 mm 3 m/s 773 mmHg 72%
    17:00 +12°C° 0 mm 2 m/s 773 mmHg 78%
    18:00 +9°C° 0 mm 2 m/s 773 mmHg 84%
    19:00 +8°C° 0 mm 2 m/s 773 mmHg 90%
    20:00 +8°C° 0 mm 1 m/s 773 mmHg 92%
    21:00 +7°C° 0 mm 1 m/s 773 mmHg 93%
    22:00 +7°C° 0 mm 1 m/s 773 mmHg 95%
    23:00 +6°C° 0 mm 1 m/s 773 mmHg 95%

    29 Martie, Vineri

    Timp Temperatura Precipitaţii Vânt Presiune Umiditate
    00:00 +6°C° 0 mm 1 m/s 773 mmHg 95%
    01:00 +6°C° 0 mm 1 m/s 773 mmHg 95%
    02:00 +6°C° 0 mm 1 m/s 773 mmHg 95%
    03:00 +6°C° 0 mm 1 m/s 773 mmHg 95%
    04:00 +6°C° 0 mm 1 m/s 772 mmHg 95%
    05:00 +6°C° 0 mm 1 m/s 773 mmHg 95%
    06:00 +7°C° 0 mm 1 m/s 773 mmHg 95%
    07:00 +7°C° 0 mm 1 m/s 773 mmHg 94%
    08:00 +8°C° 0 mm 1 m/s 773 mmHg 92%
    09:00 +8°C° 0 mm 1 m/s 773 mmHg 90%
    10:00 +9°C° 0 mm 1 m/s 773 mmHg 88%
    11:00 +11°C° 0 mm 1 m/s 772 mmHg 81%
    12:00 +13°C° 0 mm 1 m/s 772 mmHg 75%
    13:00 +14°C° 0 mm 1 m/s 772 mmHg 68%
    14:00 +15°C° 0.1 mm 1 m/s 771 mmHg 65%
    15:00 +15°C° 0.1 mm 1 m/s 771 mmHg 62%
    16:00 +15°C° 0.1 mm 2 m/s 770 mmHg 59%
    17:00 +14°C° 0.1 mm 2 m/s 770 mmHg 65%
    18:00 +12°C° 0.1 mm 2 m/s 770 mmHg 71%
    19:00 +10°C° 0.1 mm 2 m/s 770 mmHg 78%
    20:00 +9°C° 0 mm 2 m/s 770 mmHg 80%
    21:00 +8°C° 0 mm 2 m/s 770 mmHg 82%
    22:00 +7°C° 0 mm 2 m/s 770 mmHg 85%
    23:00 +7°C° 0 mm 2 m/s 770 mmHg 85%
    Arată mai mult